Printer-friendly version

IAU Minor Planet Center

Minor Planet Center

MPEC 2004-F56 : 1995 FJ

The following Minor Planet Electronic Circular may be linked-to from your own Web pages, but must not otherwise be redistributed electronically.


Read MPEC 2004-F55 Read MPEC 2004-F57


M.P.E.C. 2004-F56                                Issued 2004 Mar. 24, 23:29 UT

     The Minor Planet Electronic Circulars contain information on unusual
         minor planets and routine data on comets.  They are published
   on behalf of Commission 20 of the International Astronomical Union by the
          Minor Planet Center, Smithsonian Astrophysical Observatory,
                          Cambridge, MA 02138, U.S.A.

         Supported in part by the Steven and Michele Kirsch Foundation
             Prepared using the Tamkin Foundation Computer Network

                              MPC@CFA.HARVARD.EDU
          URL http://cfa-www.harvard.edu/iau/mpc.html  ISSN 1523-6714

                                    1995 FJ

                           Revision to MPEC 1995-G02

Additional Observations:
     J95F00J  C2004 03 23.28557 11 27 36.10 +15 40 33.8          18.8   EF056704
     J95F00J  C2004 03 23.29616 11 27 32.48 +15 40 11.6          20.1   EF056704
     J95F00J  C2004 03 23.30692 11 27 28.66 +15 39 49.2          19.3   EF056704
     J95F00J  C2004 03 23.31785 11 27 24.86 +15 39 26.0          19.4   EF056704
     J95F00J  C2004 03 23.32851 11 27 21.12 +15 39 04.2          19.4   EF056704
     J95F00J 5C2004 03 24.22292 11 22 18.98 +15 07 37.7          18.8 R EF056673
     J95F00J 5C2004 03 24.22755 11 22 17.42 +15 07 27.4                 EF056673
     J95F00J 5C2004 03 24.23310 11 22 15.45 +15 07 15.9                 EF056673
     J95F00J 5C2004 03 24.23750 11 22 13.91 +15 07 06.7                 EF056673
     J95F00J  C2004 03 24.26318 11 22 04.75 +15 06 15.7                 EF056711
     J95F00J SC2004 03 24.26827 11 22 03.05 +15 06 03.3                 EF056711
     J95F00J SC2004 03 24.27354 11 22 01.00 +15 05 53.5                 EF056711
     J95F00J  C2004 03 24.28876 11 21 55.79 +15 05 18.5          19.4 R EF056854
     J95F00J  C2004 03 24.29096 11 21 54.98 +15 05 13.5          19.5 R EF056854
     J95F00J  C2004 03 24.29474 11 21 53.64 +15 05 05.0          19.4 R EF056854
     J95F00J  C2004 03 24.94881 11 18 12.50 +14 41 10.5          19.2 R EF056J95
     J95F00J  C2004 03 24.95482 11 18 10.38 +14 40 58.3          19.3 R EF056J95
     J95F00J  C2004 03 24.96065 11 18 08.31 +14 40 44.8          19.2 R EF056J95

Observer details:
673 Table Mountain Observatory, Wrightwood.  Observer J. Young.  0.6-m
    reflector + CCD.
704 Lincoln Laboratory ETS, New Mexico.  Observers M. Blythe, F. Shelly,
    M. Bezpalko, R. Huber, L. Manguso, D. Torres, R. Kracke, M. McCleary,
    H. Stange, A. Milner.  Measurers J. Stuart, R. Sayer, J. Evans, J. Kommers.
    1.0-m f/2.15 reflector + CCD.
711 McDonald Observatory.  Observer J. G. Ries.  0.76-m reflector with prime
    focus corrector + CCD.
854 Sabino Canyon Observatory, Tucson.  Observer J. E. McGaha.  0.356-m f/10.0
    Schmidt-Cassegrain + CCD.
J95 Great Shefford.  Observer P. Birtwhistle.  0.30-m f/6.3 Schmidt-Cassegrain
    + CCD.

First and last observations above in comparison with prediction:
Residuals in seconds of arc (or two decimals in degrees), reference and Delta-T
040323 704 6.99- 7.64+    040324 J95 6.92- 7.72+    MPO 53577   +4.1 day

Orbital elements:
1995 FJ
Epoch 2004 July 14.0 TT = JDT 2453200.5                 MPC
M 338.01885              (2000.0)            P               Q
n   0.87155590     Peri.  316.41853     +0.77349408     +0.63283978
a   1.0854402      Node     4.73609     -0.40020669     +0.53041567
e   0.2705866      Incl.   25.03429     -0.49146874     +0.56406828
P   1.13           H   20.7           G   0.15           U   4
Residuals in seconds of arc
950329 809  0.5-  0.2+    950403 809  0.1+  0.5-    950425 809  0.2+  0.0
950329 809  1.0-  0.3-    950403 809  0.2+  0.5-    040323 704  0.3+  0.3+
950329 809  0.3-  0.0     950403 809  0.2+  0.6-    040323 704  1.6+  0.0
950329 809  0.1+  0.4+    950403 809  0.1+  0.8-    040323 704  0.7+  0.0
950329 809  0.5-  0.1-    950403 809  0.0   0.9-    040323 704  1.0+  0.5-
950329 809  0.1-  0.2+    950403 809  0.0   1.0-    040323 704  0.8+  0.1-
950329 809  1.0-  0.3-    950403 809  0.3-  0.8-    040324 673  0.7-  0.0
950330 809  0.2+  0.7+    950406 809  1.5-  0.4-    040324 673  0.1+  0.4-
950330 809  0.5+  0.9+    950406 809  0.7-  0.5+    040324 673  0.4-  0.1-
950330 413  0.0   0.7+    950406 809  0.5-  0.3+    040324 673  0.4-  0.1+
950330 413  0.0   0.6+    950406 809  0.8-  0.0     040324 711 (2.7+  2.1+)
950331 809  0.2-  1.3+    950406 809  0.7-  0.7+    040324 711 (3.9+  0.6+)
950331 809  0.8-  0.4+    950406 809  1.1-  0.1-    040324 711 (0.9+  2.2+)
950331 809  0.5-  0.5+    950406 809  0.9-  0.1+    040324 854  0.4-  0.7+
950402 809  1.4+  0.2-    950412 413  0.3+  0.4+    040324 854  1.0-  0.4+
950402 809  0.6+  0.3-    950412 413  0.9+  0.3+    040324 854  1.2-  0.1+
950402 809  1.3+  0.2-    950412 413  1.1+  0.0     040324 J95  0.5+  0.6-
950403 809  0.6+  0.4-    950413 413  1.1+  0.1+    040324 J95  0.0   0.5+
950403 809  0.6+  0.4-    950413 413  0.9+  0.2+    040324 J95  0.7-  0.2-
950403 809  0.6+  0.3-    950413 413  0.8+  0.3-
950403 809  0.6+  0.6-    950425 809  1.6-  0.4+

Ephemeris:
1995 FJ                  a,e,i = 1.09, 0.27, 25                  q = 0.7917
Date    TT    R. A. (2000) Decl.     Delta      r     Elong.  Phase     V
2004 03 16    12 07.57   +19 09.8    0.318    1.301   161.6    13.9    19.6
2004 03 26    11 12.29   +14 02.2    0.295    1.273   156.5    18.2    19.5
2004 04 05    10 20.19   +07 02.7    0.300    1.242   138.7    32.1    19.9
2004 04 15    09 41.18   +00 02.1    0.329    1.207   121.3    45.2    20.4
2004 04 25    09 16.10   -05 59.4    0.369    1.169   107.1    55.3    20.9
2004 05 05    09 01.33   -11 03.3    0.412    1.128    95.9    62.8    21.3
2004 05 15    08 52.97   -15 26.7    0.450    1.084    86.9    68.6    21.6
2004 05 25    08 48.14   -19 24.2    0.481    1.039    79.4    73.5    21.8
2004 06 04    08 44.50   -23 03.3    0.501    0.992    73.1    78.0    21.9
2004 06 14    08 40.08   -26 22.0    0.509    0.947    67.6    82.6    22.0

Kyle E. Smalley              (C) Copyright 2004 MPC           M.P.E.C. 2004-F56

Read MPEC 2004-F55 Read MPEC 2004-F57


Our Web policy. Index to the CBAT/MPC/ICQ pages.


Valid HTML 4.01!